Japanese version Home page |
Updated on May 8, 2006 |
Profile
|
Orbital ElementsT 2006 Aug. 21.846 TT MPC q 3.30295 (2000.0) P Q Peri. 191.456 -0.960914 +0.276382 Node 355.319 +0.266975 +0.940411 e 1.0 Incl. 168.683 +0.073265 +0.198091 From 57 observations 2006 Apr. 7-26.
|
Magnitudes Graphm1 = 12.0 + 5 log d + 10.0 log r
|
The orbital elements are published on M.P.E.C. 2006-J09.
|